Location: Newark
(49.3000°N, 9.4667°E)
Time: 22:32:46
(UTC+00:00)

Tiros 1 - Pass Details

Date: 29 May 2019
Orbit: 631 x 664 km, 48.4° (Epoch: 15 June)

Event Time Altitude Azimuth Distance (km) Brightness Sun altitude
Rises 12:48:04 0° 283° (WNW) 2,941 10.7 57.2°
Reaches altitude 10° 12:50:29 10° 276° (W) 2,035 10.1 57.0°
Maximum altitude 12:54:52 41° 207° (SSW) 938 9.8 56.5°
Drops below altitude 10° 12:59:18 10° 137° (SE) 2,048 9.9 56.0°
Sets 13:01:44 0° 130° (SE) 2,962 10.5 55.7°
